Wind_Speed
14 14 15 15 16 16 16 16 17 17 17 17 18 19 20 19 19 19 19 19 18 19 19 19 19 19 19 19 19 19 19 19 19 19 20 20 20 20
15 15 16 17 17 17 17 18 18 18 18 18 19 19 20 20 19 20 20 19 19 19 19 19 20 21 20 21 20 20 20 21 20 21 21 21 21 21
16 16 17 18 18 18 18 19 20 20 19 20 20 20 21 21 21 20 20 20 20 19 19 19 20 21 22 21 22 22 22 22 22 22 23 23 23 23
17 18 18 19 19 20 20 20 20 20 20 20 20 20 21 21 21 21 21 21 21 21 21 21 21 21 22 22 22 22 22 23 23 23 23 24 24 24
20 20 20 20 20 21 21 21 21 20 20 20 20 21 21 21 22 22 22 22 22 22 21 21 21 21 21 22 22 22 22 23 23 23 23 24 24 25
21 21 21 21 22 22 23 23 22 21 21 21 21 21 22 22 22 22 22 22 22 22 22 21 21 21 22 21 21 21 22 22 22 23 23 24 25 25
22 23 23 23 23 24 24 23 22 22 22 23 23 23 23 23 23 22 22 22 22 22 22 21 22 22 22 22 22 22 22 22 22 22 23 23 25 25
23 24 25 24 24 24 24 24 24 24 24 24 24 25 24 24 23 23 23 23 23 23 23 23 23 23 23 23 23 23 24 24 24 24 24 25 25 26
25 25 25 25 25 24 25 26 26 26 25 26 26 26 25 25 25 25 25 25 25 25 25 24 24 24 24 24 24 25 25 25 25 25 25 25 26 26
25 25 25 25 26 27 26 26 26 26 27 27 26 26 26 26 26 26 27 27 27 26 26 26 26 26 25 26 26 26 27 27 26 26 27 26 26 27
26 26 26 26 27 28 28 27 27 27 27 28 28 28 28 27 28 28 28 28 28 28 28 28 28 28 28 28 28 29 29 28 28 28 28 28 28 28
28 28 28 27 27 27 27 27 28 28 28 29 29 29 29 29 28 28 28 28 28 29 28 28 29 29 29 29 30 30 31 30 30 29 29 29 29 29
29 30 29 28 28 28 28 28 28 29 29 30 30 30 29 29 29 28 28 28 29 30 30 30 30 30 30 30 30 31 32 32 31 31 30 30 30 31
31 30 29 29 28 29 28 29 29 30 30 30 30 30 30 31 31 30 29 29 30 30 30 30 30 31 31 31 30 30 31 31 31 30 30 30 31 31
33 32 31 30 30 31 30 30 31 31 31 31 30 31 31 32 32 31 30 30 30 30 30 31 31 31 31 32 31 30 30 30 30 30 31 31 31 31
34 34 32 31 32 33 32 31 32 32 32 32 31 32 32 32 32 31 31 31 31 31 31 31 32 31 31 32 31 30 30 30 30 30 31 31 31 32
34 35 34 34 34 34 33 33 33 33 33 33 33 33 32 32 32 31 31 31 31 31 31 32 32 32 32 32 32 32 32 32 31 31 31 31 32 32
34 34 35 35 34 34 34 34 34 33 32 32 32 31 31 31 31 30 30 31 31 32 32 32 33 32 32 32 33 33 33 33 32 32 32 32 32 33
33 34 34 34 34 33 33 33 32 32 32 32 32 31 31 31 31 31 31 31 31 32 32 32 31 31 32 32 32 33 34 33 32 33 33 33 33 33
32 32 32 33 34 33 32 32 32 31 32 32 32 31 31 30 31 31 31 32 32 31 31 30 30 31 31 31 32 33 34 34 34 34 34 34 34 34
31 31 31 32 32 31 32 31 30 31 31 31 32 31 31 30 31 31 32 32 32 31 31 31 32 32 32 32 32 33 34 35 35 35 35 36 35 35
30 30 30 30 30 30 30 30 30 31 31 31 31 31 30 30 30 31 32 32 32 32 33 33 33 33 34 34 34 34 34 35 36 36 36 35 34 34
28 28 28 29 29 28 29 29 30 30 30 30 30 31 31 31 32 32 33 32 32 33 33 34 34 35 35 36 36 35 35 35 35 36 36 35 35 34
Wind_Direction
305 304 306 307 305 302 299 298 298 296 293 291 290 288 283 281 280 279 278 278 279 280 281 280 279 278 277 276 276 275 274 273 272 272 270 272 271 267
303 303 305 308 306 304 300 298 298 296 293 292 291 289 287 284 282 280 279 279 279 279 280 279 278 278 278 275 273 274 272 272 271 270 271 271 272 269
301 302 304 305 305 304 302 299 297 294 291 290 290 288 285 283 281 279 278 279 279 279 279 279 279 278 277 276 275 274 272 270 270 270 270 271 272 270
301 300 302 302 302 302 302 302 299 296 292 289 289 289 286 281 281 280 279 278 277 277 278 278 277 276 277 277 276 274 271 270 270 271 272 271 272 271
299 299 299 299 299 301 302 302 300 298 296 292 290 289 287 283 281 280 279 279 279 278 278 279 278 276 277 278 276 275 273 271 271 271 272 272 271 270
297 297 297 297 297 298 299 300 298 295 295 294 292 290 287 284 283 283 281 282 281 280 281 280 279 279 278 279 280 279 276 274 273 272 271 271 270 270
294 295 294 295 296 296 296 297 296 295 295 292 290 290 288 285 282 281 281 281 279 281 280 279 278 278 278 278 278 278 277 275 274 274 273 273 272 271
293 292 292 292 294 293 292 292 294 294 294 292 290 288 287 285 283 281 281 281 280 280 279 278 278 278 277 277 277 278 277 276 276 276 275 275 274 273
296 294 292 291 292 292 292 292 293 293 293 293 290 289 288 286 284 281 280 280 280 279 280 277 276 278 278 278 278 279 279 278 276 274 275 276 275 274
297 295 292 291 290 290 290 292 292 292 293 294 294 292 291 288 286 284 280 278 278 278 278 277 275 276 278 276 277 278 279 278 277 275 275 276 275 275
294 294 292 291 292 291 290 290 291 291 293 293 293 294 292 288 286 285 284 280 278 279 278 279 277 275 276 277 276 277 276 276 276 276 275 276 275 274
291 291 292 291 291 290 288 288 289 290 291 292 292 292 291 289 287 285 283 282 280 279 279 279 279 278 276 277 277 277 275 275 275 274 275 275 274 275
290 291 290 292 290 288 286 286 287 289 290 291 290 289 288 287 288 288 286 284 283 281 279 279 279 280 280 278 278 277 276 275 274 274 273 273 273 274
289 290 289 289 289 287 285 285 286 288 289 290 290 290 289 288 288 287 286 286 285 283 280 280 280 281 282 281 281 281 278 276 275 273 272 273 274 274
288 288 287 286 287 287 287 286 287 288 289 290 290 290 290 290 289 286 283 285 285 284 283 283 283 282 282 282 282 281 280 278 276 274 273 273 274 274
287 286 285 285 286 287 286 286 286 287 288 289 289 289 289 289 288 286 283 283 284 283 282 282 283 282 282 283 282 282 282 281 277 273 274 274 274 274
285 284 284 284 285 285 285 285 284 285 287 289 290 289 289 289 288 286 283 282 283 282 281 281 281 281 280 281 283 284 284 284 280 275 274 274 275 275
284 285 284 284 285 284 283 283 283 285 286 287 288 288 289 288 287 286 284 283 282 282 281 280 280 280 280 281 283 285 285 284 282 278 276 276 276 276
285 284 285 286 286 285 284 282 283 284 285 287 287 288 288 287 285 285 284 284 283 282 282 282 280 279 280 281 283 285 285 283 283 282 280 279 278 278
287 286 286 286 286 285 285 283 282 283 285 286 287 287 286 284 284 284 284 283 283 281 281 282 282 282 282 282 283 284 283 282 283 283 282 281 280 280
289 288 287 287 287 287 286 284 282 282 284 285 286 286 284 283 284 284 284 283 282 282 281 282 282 283 283 284 285 285 285 284 284 282 281 280 280 281
291 291 290 289 288 286 285 284 283 284 285 285 286 285 284 285 286 285 284 283 283 283 282 282 282 282 283 284 284 284 285 285 284 284 282 281 282 282
292 292 291 290 288 286 285 286 286 287 286 287 286 285 285 285 285 285 284 283 283 283 283 283 282 283 283 283 284 284 284 284 284 283 282 281 281 281
Height
5869 5868 5866 5864 5863 5861 5859 5857 5856 5854 5852 5850 5849 5848 5847 5846 5845 5844 5844 5843 5842 5842 5841 5840 5840 5839 5839 5838 5838 5838 5837 5836 5836 5836 5836 5836 5836 5837
5865 5864 5863 5861 5859 5857 5855 5853 5851 5849 5847 5846 5844 5843 5842 5841 5840 5839 5839 5838 5837 5836 5836 5835 5834 5834 5833 5833 5833 5832 5832 5831 5831 5831 5831 5831 5831 5831
5862 5860 5859 5857 5855 5853 5851 5849 5847 5844 5843 5841 5839 5838 5837 5836 5835 5834 5833 5832 5832 5831 5830 5830 5829 5828 5827 5827 5827 5826 5826 5826 5825 5825 5825 5825 5825 5825
5858 5856 5854 5852 5850 5848 5846 5844 5842 5839 5837 5836 5834 5833 5832 5830 5829 5828 5827 5827 5826 5826 5825 5824 5823 5822 5822 5821 5820 5820 5819 5819 5819 5819 5819 5819 5819 5819
5853 5852 5850 5848 5846 5843 5841 5839 5837 5834 5832 5831 5829 5828 5826 5825 5824 5823 5821 5820 5820 5819 5819 5818 5817 5816 5815 5815 5814 5813 5813 5812 5812 5812 5812 5812 5812 5812
5848 5847 5845 5843 5841 5839 5836 5834 5832 5830 5827 5825 5824 5822 5821 5819 5818 5817 5815 5814 5813 5813 5812 5811 5810 5810 5809 5809 5808 5807 5806 5805 5805 5805 5805 5805 5805 5805
5843 5841 5839 5837 5835 5833 5831 5828 5826 5824 5822 5820 5818 5816 5815 5813 5811 5810 5809 5808 5807 5806 5805 5805 5804 5803 5803 5802 5802 5801 5800 5799 5799 5798 5798 5798 5798 5797
5838 5835 5833 5831 5829 5826 5824 5822 5820 5818 5816 5813 5812 5810 5808 5806 5805 5803 5802 5802 5801 5800 5799 5798 5797 5796 5795 5795 5794 5793 5793 5792 5792 5791 5791 5791 5790 5790
5831 5829 5827 5824 5822 5820 5818 5816 5814 5811 5809 5807 5805 5803 5801 5800 5798 5796 5795 5795 5794 5793 5792 5791 5790 5788 5788 5788 5787 5786 5786 5785 5784 5784 5784 5783 5783 5782
5825 5822 5820 5818 5815 5813 5811 5809 5807 5805 5803 5800 5798 5796 5794 5792 5790 5789 5788 5787 5786 5785 5785 5784 5783 5781 5781 5780 5779 5778 5778 5777 5776 5776 5776 5775 5774 5774
5818 5815 5813 5811 5809 5806 5804 5801 5800 5798 5796 5793 5791 5790 5787 5785 5783 5782 5781 5779 5778 5778 5777 5776 5775 5773 5772 5771 5771 5770 5770 5769 5768 5768 5767 5766 5766 5765
5810 5808 5805 5803 5801 5798 5796 5794 5792 5790 5788 5786 5784 5782 5780 5778 5776 5774 5773 5772 5771 5770 5769 5768 5766 5765 5764 5763 5762 5761 5760 5760 5759 5759 5758 5757 5757 5756
5802 5800 5797 5795 5793 5791 5789 5787 5785 5782 5780 5778 5775 5774 5772 5770 5768 5767 5765 5764 5763 5761 5760 5759 5758 5756 5755 5754 5753 5751 5750 5750 5749 5749 5748 5748 5747 5747
5793 5791 5789 5787 5785 5783 5781 5779 5777 5774 5772 5770 5767 5765 5763 5762 5760 5759 5757 5755 5754 5753 5751 5750 5748 5747 5745 5744 5743 5742 5740 5739 5739 5738 5738 5737 5737 5736
5784 5782 5780 5778 5777 5775 5773 5770 5768 5766 5764 5761 5759 5758 5755 5753 5751 5750 5748 5747 5745 5743 5742 5740 5739 5737 5736 5734 5733 5732 5731 5730 5728 5728 5727 5726 5726 5726
5774 5772 5771 5769 5768 5765 5764 5762 5759 5757 5755 5753 5750 5748 5746 5744 5742 5740 5739 5737 5736 5735 5733 5731 5730 5728 5726 5725 5723 5722 5721 5719 5718 5717 5717 5716 5715 5715
5764 5763 5761 5759 5758 5756 5754 5752 5750 5748 5746 5744 5741 5739 5737 5735 5733 5731 5729 5727 5726 5725 5723 5722 5720 5718 5717 5715 5714 5712 5710 5709 5708 5707 5706 5705 5705 5704
5754 5752 5751 5749 5747 5745 5744 5742 5740 5738 5736 5734 5731 5729 5727 5725 5723 5721 5719 5718 5716 5715 5714 5712 5711 5709 5707 5706 5704 5702 5700 5699 5698 5697 5695 5695 5694 5693
5744 5743 5740 5738 5737 5735 5733 5732 5730 5728 5726 5724 5721 5719 5718 5716 5714 5712 5710 5708 5707 5705 5704 5702 5701 5699 5698 5696 5694 5692 5690 5689 5687 5686 5685 5684 5684 5683
5735 5733 5731 5729 5726 5724 5722 5721 5719 5718 5716 5714 5712 5710 5708 5706 5704 5703 5701 5699 5697 5695 5694 5692 5691 5689 5687 5686 5684 5682 5680 5678 5677 5676 5675 5674 5673 5672
5726 5724 5721 5719 5716 5714 5713 5711 5709 5707 5706 5704 5702 5700 5698 5696 5695 5693 5691 5689 5687 5686 5684 5682 5681 5679 5676 5675 5674 5672 5670 5668 5666 5665 5664 5662 5661 5660
5717 5714 5712 5710 5708 5706 5704 5702 5700 5698 5697 5695 5693 5690 5688 5687 5685 5683 5681 5680 5678 5676 5674 5672 5670 5668 5666 5664 5663 5661 5660 5657 5655 5653 5652 5651 5649 5648
5708 5706 5703 5701 5699 5697 5695 5693 5691 5689 5687 5685 5683 5681 5679 5677 5675 5673 5671 5669 5667 5665 5663 5661 5659 5657 5655 5653 5651 5650 5648 5646 5644 5642 5641 5639 5638 5637